Time,TemperatureF,DewpointF,PressureIn,WindDirection,WindDirectionDegrees,WindSpeedMPH,WindSpeedGustMPH,Humidity,HourlyPrecipIn,Conditions,Clouds,dailyrainin,SoftwareType,DateUTC
2013-05-12 00:01:00,44.7,30.8,30.15,West,269,0.0,0.0,58,0.00,CLR,,0.00,WeatherDisplay:10.37,2013-05-12 06:01:00,
2013-05-12 00:06:00,44.5,30.6,30.15,West,269,0.0,0.0,58,0.00,CLR,,0.00,WeatherDisplay:10.37,2013-05-12 06:06:00,
2013-05-12 00:11:00,44.3,30.9,30.15,West,269,0.0,0.0,59,0.00,CLR,,0.00,WeatherDisplay:10.37,2013-05-12 06:11:00,
2013-05-12 00:16:00,44.1,30.7,30.15,North,355,0.0,0.0,59,0.00,CLR,,0.00,WeatherDisplay:10.37,2013-05-12 06:16:00,
2013-05-12 00:21:00,43.7,29.9,30.15,North,355,0.0,0.0,58,0.00,CLR,,0.00,WeatherDisplay:10.37,2013-05-12 06:21:00,
2013-05-12 00:26:00,43.4,29.6,30.15,North,355,0.0,0.0,58,0.00,CLR,,0.00,WeatherDisplay:10.37,2013-05-12 06:26:00,
2013-05-12 00:31:00,43.1,29.7,30.16,North,355,0.0,0.0,59,0.00,CLR,,0.00,WeatherDisplay:10.37,2013-05-12 06:31:00,
2013-05-12 00:36:00,42.9,30.0,30.16,North,5,0.0,0.0,60,0.00,CLR,,0.00,WeatherDisplay:10.37,2013-05-12 06:36:00,
2013-05-12 00:41:00,42.7,29.8,30.16,North,5,0.0,0.0,60,0.00,CLR,,0.00,WeatherDisplay:10.37,2013-05-12 06:41:00,
2013-05-12 00:46:00,42.5,28.8,30.16,East,85,1.1,0.0,58,0.00,CLR,,0.00,WeatherDisplay:10.37,2013-05-12 06:46:00,
2013-05-12 00:51:00,42.2,28.9,30.17,East,85,0.0,0.0,59,0.00,CLR,,0.00,WeatherDisplay:10.37,2013-05-12 06:51:00,
2013-05-12 00:56:00,41.9,28.6,30.17,East,85,0.0,0.0,59,0.00,CLR,,0.00,WeatherDisplay:10.37,2013-05-12 06:56:00,
2013-05-12 01:01:00,41.8,28.9,30.17,East,85,0.0,0.0,60,0.00,CLR,,0.00,WeatherDisplay:10.37,2013-05-12 07:01:00,
2013-05-12 01:06:00,41.6,28.7,30.17,East,85,0.0,0.0,60,0.00,CLR,,0.00,WeatherDisplay:10.37,2013-05-12 07:06:00,
2013-05-12 01:11:00,41.6,29.1,30.17,East,85,0.0,0.0,61,0.00,CLR,,0.00,WeatherDisplay:10.37,2013-05-12 07:11:00,
2013-05-12 01:16:00,41.6,29.1,30.17,East,85,0.0,0.0,61,0.00,CLR,,0.00,WeatherDisplay:10.37,2013-05-12 07:16:00,
2013-05-12 01:21:00,41.6,29.1,30.17,East,85,0.0,0.0,61,0.00,CLR,,0.00,WeatherDisplay:10.37,2013-05-12 07:21:00,
2013-05-12 01:26:00,41.5,29.0,30.17,East,85,0.0,0.0,61,0.00,CLR,,0.00,WeatherDisplay:10.37,2013-05-12 07:26:00,
2013-05-12 01:31:00,41.3,29.3,30.17,East,85,0.0,0.0,62,0.00,CLR,,0.00,WeatherDisplay:10.37,2013-05-12 07:31:00,
2013-05-12 01:36:00,41.2,29.5,30.17,East,85,0.0,0.0,63,0.00,CLR,,0.00,WeatherDisplay:10.37,2013-05-12 07:36:00,
2013-05-12 01:41:00,41.0,29.4,30.17,East,85,0.0,0.0,63,0.00,CLR,,0.00,WeatherDisplay:10.37,2013-05-12 07:41:00,
2013-05-12 01:46:00,40.9,29.7,30.17,East,85,0.0,0.0,64,0.00,CLR,,0.00,WeatherDisplay:10.37,2013-05-12 07:46:00,
2013-05-12 01:51:00,40.8,30.3,30.17,East,85,0.0,0.0,66,0.00,CLR,,0.00,WeatherDisplay:10.37,2013-05-12 07:51:00,
2013-05-12 01:56:00,40.7,30.2,30.18,East,85,0.0,0.0,66,0.00,CLR,,0.00,WeatherDisplay:10.37,2013-05-12 07:56:00,
2013-05-12 02:01:00,40.6,30.1,30.17,East,85,0.0,0.0,66,0.00,CLR,,0.00,WeatherDisplay:10.37,2013-05-12 08:01:00,
2013-05-12 02:06:00,40.4,29.9,30.17,East,85,0.0,0.0,66,0.00,CLR,,0.00,WeatherDisplay:10.37,2013-05-12 08:06:00,
2013-05-12 02:11:00,40.2,29.7,30.17,East,85,0.0,0.0,66,0.00,CLR,,0.00,WeatherDisplay:10.37,2013-05-12 08:11:00,
2013-05-12 02:16:00,40.1,30.0,30.17,East,85,0.0,0.0,67,0.00,CLR,,0.00,WeatherDisplay:10.37,2013-05-12 08:16:00,
2013-05-12 02:21:00,39.9,29.8,30.17,East,85,0.0,0.0,67,0.00,CLR,,0.00,WeatherDisplay:10.37,2013-05-12 08:21:00,
2013-05-12 02:26:00,39.8,29.7,30.17,East,85,0.0,0.0,67,0.00,CLR,,0.00,WeatherDisplay:10.37,2013-05-12 08:26:00,
2013-05-12 02:31:00,39.7,29.3,30.17,East,85,0.0,0.0,66,0.00,CLR,,0.00,WeatherDisplay:10.37,2013-05-12 08:31:00,
2013-05-12 02:36:00,39.5,29.1,30.17,East,85,0.0,0.0,66,0.00,CLR,,0.00,WeatherDisplay:10.37,2013-05-12 08:36:00,
2013-05-12 02:41:00,39.5,29.1,30.17,East,85,0.0,0.0,66,0.00,CLR,,0.00,WeatherDisplay:10.37,2013-05-12 08:41:00,
2013-05-12 02:46:00,39.5,28.7,30.17,East,85,0.0,0.0,65,0.00,CLR,,0.00,WeatherDisplay:10.37,2013-05-12 08:46:00,
2013-05-12 02:51:00,39.7,29.3,30.17,East,85,0.0,0.0,66,0.00,CLR,,0.00,WeatherDisplay:10.37,2013-05-12 08:51:00,
2013-05-12 02:56:00,39.6,29.2,30.17,East,85,0.0,0.0,66,0.00,CLR,,0.00,WeatherDisplay:10.37,2013-05-12 08:56:00,
2013-05-12 03:01:00,39.4,29.3,30.17,East,85,0.0,0.0,67,0.00,CLR,,0.00,WeatherDisplay:10.37,2013-05-12 09:01:00,
2013-05-12 03:06:00,39.1,29.1,30.17,East,85,0.0,0.0,67,0.00,CLR,,0.00,WeatherDisplay:10.37,2013-05-12 09:06:00,
2013-05-12 03:11:00,38.9,28.9,30.17,East,85,0.0,0.0,67,0.00,CLR,,0.00,WeatherDisplay:10.37,2013-05-12 09:11:00,
2013-05-12 03:16:00,38.8,29.1,30.17,East,85,0.0,0.0,68,0.00,CLR,,0.00,WeatherDisplay:10.37,2013-05-12 09:16:00,
2013-05-12 03:21:00,38.6,29.3,30.17,East,85,0.0,0.0,69,0.00,CLR,,0.00,WeatherDisplay:10.37,2013-05-12 09:21:00,
2013-05-12 03:26:00,38.5,29.6,30.17,East,85,0.0,0.0,70,0.00,CLR,,0.00,WeatherDisplay:10.37,2013-05-12 09:26:00,
2013-05-12 03:31:00,38.4,29.5,30.17,East,85,0.0,0.0,70,0.00,CLR,,0.00,WeatherDisplay:10.37,2013-05-12 09:31:00,
2013-05-12 03:36:00,38.3,29.4,30.16,East,85,0.0,0.0,70,0.00,CLR,,0.00,WeatherDisplay:10.37,2013-05-12 09:36:00,
2013-05-12 03:41:00,38.2,29.3,30.17,East,85,0.0,0.0,70,0.00,CLR,,0.00,WeatherDisplay:10.37,2013-05-12 09:41:00,
2013-05-12 03:46:00,38.2,29.3,30.16,East,85,0.0,0.0,70,0.00,CLR,,0.00,WeatherDisplay:10.37,2013-05-12 09:46:00,
2013-05-12 03:51:00,38.1,29.2,30.17,East,85,0.0,0.0,70,0.00,CLR,,0.00,WeatherDisplay:10.37,2013-05-12 09:51:00,
2013-05-12 03:56:00,38.0,29.4,30.16,East,85,0.0,0.0,71,0.00,CLR,,0.00,WeatherDisplay:10.37,2013-05-12 09:56:00,
2013-05-12 04:01:00,38.0,30.1,30.17,East,85,0.0,0.0,73,0.00,CLR,,0.00,WeatherDisplay:10.37,2013-05-12 10:01:00,
2013-05-12 04:06:00,37.9,29.7,30.17,East,85,0.0,0.0,72,0.00,CLR,,0.00,WeatherDisplay:10.37,2013-05-12 10:06:00,
2013-05-12 04:11:00,37.7,29.5,30.17,East,85,0.0,0.0,72,0.00,CLR,,0.00,WeatherDisplay:10.37,2013-05-12 10:11:00,
2013-05-12 04:16:00,37.6,29.0,30.17,East,85,0.0,0.0,71,0.00,CLR,,0.00,WeatherDisplay:10.37,2013-05-12 10:16:00,
2013-05-12 04:21:00,37.5,29.3,30.17,East,85,0.0,0.0,72,0.00,CLR,,0.00,WeatherDisplay:10.37,2013-05-12 10:21:00,
2013-05-12 04:26:00,37.4,29.2,30.17,East,85,0.0,0.0,72,0.00,CLR,,0.00,WeatherDisplay:10.37,2013-05-12 10:26:00,
2013-05-12 04:31:00,37.3,29.1,30.17,East,85,0.0,0.0,72,0.00,CLR,,0.00,WeatherDisplay:10.37,2013-05-12 10:31:00,
2013-05-12 04:36:00,37.2,29.3,30.17,East,85,0.0,0.0,73,0.00,CLR,,0.00,WeatherDisplay:10.37,2013-05-12 10:36:00,
2013-05-12 04:41:00,37.2,29.3,30.17,East,85,0.0,0.0,73,0.00,CLR,,0.00,WeatherDisplay:10.37,2013-05-12 10:41:00,
2013-05-12 04:46:00,37.1,29.6,30.17,East,85,0.0,0.0,74,0.00,CLR,,0.00,WeatherDisplay:10.37,2013-05-12 10:46:00,
2013-05-12 04:51:00,37.0,29.5,30.17,East,85,0.0,0.0,74,0.00,CLR,,0.00,WeatherDisplay:10.37,2013-05-12 10:51:00,
2013-05-12 04:56:00,36.9,29.4,30.17,East,85,0.0,0.0,74,0.00,CLR,,0.00,WeatherDisplay:10.37,2013-05-12 10:56:00,
2013-05-12 05:01:00,36.8,29.3,30.17,East,85,0.0,0.0,74,0.00,CLR,,0.00,WeatherDisplay:10.37,2013-05-12 11:01:00,
2013-05-12 05:06:00,36.8,29.3,30.17,East,85,0.0,0.0,74,0.00,CLR,,0.00,WeatherDisplay:10.37,2013-05-12 11:06:00,
2013-05-12 05:11:00,36.7,29.5,30.17,East,85,0.0,0.0,75,0.00,CLR,,0.00,WeatherDisplay:10.37,2013-05-12 11:11:00,
2013-05-12 05:16:00,36.7,29.5,30.17,East,85,0.0,0.0,75,0.00,CLR,,0.00,WeatherDisplay:10.37,2013-05-12 11:16:00,
2013-05-12 05:21:00,36.7,29.5,30.17,East,85,0.0,0.0,75,0.00,CLR,,0.00,WeatherDisplay:10.37,2013-05-12 11:21:00,
2013-05-12 05:26:00,36.7,29.5,30.17,East,85,0.0,0.0,75,0.00,CLR,,0.00,WeatherDisplay:10.37,2013-05-12 11:26:00,
2013-05-12 05:31:00,36.6,29.4,30.17,East,85,0.0,0.0,75,0.00,CLR,,0.00,WeatherDisplay:10.37,2013-05-12 11:31:00,
2013-05-12 05:36:00,36.5,29.3,30.17,East,85,0.0,0.0,75,0.00,CLR,,0.00,WeatherDisplay:10.37,2013-05-12 11:36:00,
2013-05-12 05:41:00,36.4,29.6,30.17,East,85,0.0,0.0,76,0.00,CLR,,0.00,WeatherDisplay:10.37,2013-05-12 11:41:00,
2013-05-12 05:46:00,36.3,29.5,30.17,East,85,0.0,0.0,76,0.00,CLR,,0.00,WeatherDisplay:10.37,2013-05-12 11:46:00,
2013-05-12 05:51:00,36.3,29.5,30.17,East,85,0.0,0.0,76,0.00,CLR,,0.00,WeatherDisplay:10.37,2013-05-12 11:51:00,
2013-05-12 05:56:00,36.2,29.7,30.17,East,85,0.0,0.0,77,0.00,CLR,,0.00,WeatherDisplay:10.37,2013-05-12 11:56:00,
2013-05-12 06:01:00,36.2,29.7,30.17,East,85,0.0,0.0,77,0.00,CLR,,0.00,WeatherDisplay:10.37,2013-05-12 12:01:00,
2013-05-12 06:06:00,36.0,29.5,30.18,East,85,0.0,0.0,77,0.00,CLR,,0.00,WeatherDisplay:10.37,2013-05-12 12:06:00,
2013-05-12 06:12:00,35.9,29.4,30.18,East,85,0.0,0.0,77,0.00,CLR,,0.00,WeatherDisplay:10.37,2013-05-12 12:12:00,
2013-05-12 06:17:00,35.9,29.7,30.18,East,85,0.0,0.0,78,0.00,CLR,,0.00,WeatherDisplay:10.37,2013-05-12 12:17:00,
2013-05-12 06:22:00,35.8,29.6,30.18,East,85,0.0,0.0,78,0.00,CLR,,0.00,WeatherDisplay:10.37,2013-05-12 12:22:00,
2013-05-12 06:27:00,35.7,29.5,30.18,East,85,0.0,0.0,78,0.00,CLR,,0.00,WeatherDisplay:10.37,2013-05-12 12:27:00,
2013-05-12 06:32:00,35.7,29.5,30.18,East,85,0.0,0.0,78,0.00,CLR,,0.00,WeatherDisplay:10.37,2013-05-12 12:32:00,
2013-05-12 06:37:00,35.7,29.8,30.18,East,85,0.0,0.0,79,0.00,CLR,,0.00,WeatherDisplay:10.37,2013-05-12 12:37:00,
2013-05-12 06:42:00,35.7,29.8,30.18,East,85,0.0,0.0,79,0.00,CLR,,0.00,WeatherDisplay:10.37,2013-05-12 12:42:00,
2013-05-12 06:47:00,35.8,30.2,30.18,East,85,0.0,0.0,80,0.00,CLR,,0.00,WeatherDisplay:10.37,2013-05-12 12:47:00,
2013-05-12 06:52:00,35.9,30.3,30.18,East,85,0.0,0.0,80,0.00,CLR,,0.00,WeatherDisplay:10.37,2013-05-12 12:52:00,
2013-05-12 06:57:00,35.9,30.3,30.18,East,85,0.0,0.0,80,0.00,CLR,,0.00,WeatherDisplay:10.37,2013-05-12 12:57:00,
2013-05-12 07:02:00,36.0,30.4,30.19,East,85,0.0,0.0,80,0.00,CLR,,0.00,WeatherDisplay:10.37,2013-05-12 13:02:00,
2013-05-12 07:07:00,36.1,30.8,30.19,East,85,0.0,0.0,81,0.00,CLR,,0.00,WeatherDisplay:10.37,2013-05-12 13:07:00,
2013-05-12 07:12:00,36.2,30.9,30.19,East,85,0.0,0.0,81,0.00,CLR,,0.00,WeatherDisplay:10.37,2013-05-12 13:12:00,
2013-05-12 07:17:00,36.4,31.1,30.19,East,85,0.0,0.0,81,0.00,CLR,,0.00,WeatherDisplay:10.37,2013-05-12 13:17:00,
2013-05-12 07:22:00,36.6,31.3,30.19,East,85,0.0,0.0,81,0.00,CLR,,0.00,WeatherDisplay:10.37,2013-05-12 13:22:00,
2013-05-12 07:27:00,36.8,31.5,30.19,East,85,0.0,0.0,81,0.00,CLR,,0.00,WeatherDisplay:10.37,2013-05-12 13:27:00,
2013-05-12 07:32:00,37.0,31.4,30.19,East,85,0.0,0.0,80,0.00,CLR,,0.00,WeatherDisplay:10.37,2013-05-12 13:32:00,
2013-05-12 07:37:00,37.5,31.6,30.20,East,85,0.0,0.0,79,0.00,CLR,,0.00,WeatherDisplay:10.37,2013-05-12 13:37:00,
2013-05-12 07:42:00,38.0,32.7,30.19,East,85,1.1,1.1,81,0.00,CLR,,0.00,WeatherDisplay:10.37,2013-05-12 13:42:00,
2013-05-12 07:47:00,38.7,33.4,30.19,East,85,0.0,0.0,81,0.00,CLR,,0.00,WeatherDisplay:10.37,2013-05-12 13:47:00,
2013-05-12 07:52:00,39.7,33.4,30.19,East,85,1.1,0.0,78,0.00,CLR,,0.00,WeatherDisplay:10.37,2013-05-12 13:52:00,
2013-05-12 07:57:00,40.6,33.6,30.19,East,85,0.0,0.0,76,0.00,CLR,,0.00,WeatherDisplay:10.37,2013-05-12 13:57:00,
2013-05-12 08:02:00,41.5,33.8,30.19,East,85,0.0,0.0,74,0.00,CLR,,0.00,WeatherDisplay:10.37,2013-05-12 14:02:00,
2013-05-12 08:07:00,42.1,32.7,30.19,East,85,0.0,0.0,69,0.00,CLR,,0.00,WeatherDisplay:10.37,2013-05-12 14:07:00,
2013-05-12 08:12:00,42.8,32.2,30.18,East,85,0.0,0.0,66,0.00,CLR,,0.00,WeatherDisplay:10.37,2013-05-12 14:12:00,
2013-05-12 08:17:00,43.6,31.4,30.18,East,85,0.0,0.0,62,0.00,CLR,,0.00,WeatherDisplay:10.37,2013-05-12 14:17:00,
2013-05-12 08:22:00,44.5,32.7,30.18,East,85,0.0,0.0,63,0.00,CLR,,0.00,WeatherDisplay:10.37,2013-05-12 14:22:00,
2013-05-12 08:27:00,45.4,33.1,30.18,East,85,0.0,0.0,62,0.00,CLR,,0.00,WeatherDisplay:10.37,2013-05-12 14:27:00,
2013-05-12 08:32:00,46.4,34.1,30.18,East,85,0.0,0.0,62,0.00,CLR,,0.00,WeatherDisplay:10.37,2013-05-12 14:32:00,
2013-05-12 08:37:00,47.3,33.3,30.17,ENE,65,0.0,0.0,58,0.00,CLR,,0.00,WeatherDisplay:10.37,2013-05-12 14:37:00,
2013-05-12 08:42:00,48.3,34.6,30.17,ENE,59,2.3,2.3,59,0.00,CLR,,0.00,WeatherDisplay:10.37,2013-05-12 14:42:00,
2013-05-12 08:47:00,49.2,34.2,30.17,ENE,59,0.0,0.0,56,0.00,CLR,,0.00,WeatherDisplay:10.37,2013-05-12 14:47:00,
2013-05-12 08:52:00,50.4,33.9,30.17,ENE,58,0.0,0.0,53,0.00,CLR,,0.00,WeatherDisplay:10.37,2013-05-12 14:52:00,
2013-05-12 08:57:00,51.4,34.3,30.17,NE,56,1.1,1.1,52,0.00,CLR,,0.00,WeatherDisplay:10.37,2013-05-12 14:57:00,
2013-05-12 09:02:00,52.6,34.5,30.17,NE,55,1.1,1.1,50,0.00,CLR,,0.00,WeatherDisplay:10.37,2013-05-12 15:02:00,
2013-05-12 09:07:00,54.1,35.3,30.17,NE,55,1.1,0.0,49,0.00,CLR,,0.00,WeatherDisplay:10.37,2013-05-12 15:07:00,
2013-05-12 09:12:00,55.0,33.5,30.17,NW,321,1.1,0.0,44,0.00,CLR,,0.00,WeatherDisplay:10.37,2013-05-12 15:12:00,
2013-05-12 09:17:00,56.4,34.2,30.17,NW,321,0.0,0.0,43,0.00,CLR,,0.00,WeatherDisplay:10.37,2013-05-12 15:17:00,
2013-05-12 09:22:00,58.0,35.0,30.17,NE,46,0.0,0.0,42,0.00,CLR,,0.00,WeatherDisplay:10.37,2013-05-12 15:22:00,
2013-05-12 09:27:00,59.2,36.1,30.17,East,82,3.5,3.5,42,0.00,CLR,,0.00,WeatherDisplay:10.37,2013-05-12 15:27:00,
2013-05-12 09:32:00,59.8,36.0,30.16,East,82,1.1,1.1,41,0.00,CLR,,0.00,WeatherDisplay:10.37,2013-05-12 15:32:00,
2013-05-12 09:37:00,60.5,34.7,30.16,East,92,0.0,0.0,38,0.00,CLR,,0.00,WeatherDisplay:10.37,2013-05-12 15:37:00,
2013-05-12 09:42:00,61.2,34.7,30.16,ESE,113,2.3,2.3,37,0.00,CLR,,0.00,WeatherDisplay:10.37,2013-05-12 15:42:00,
2013-05-12 09:47:00,61.8,35.9,30.16,ESE,113,0.0,0.0,38,0.00,CLR,,0.00,WeatherDisplay:10.37,2013-05-12 15:47:00,
2013-05-12 09:52:00,62.5,34.5,30.15,SE,142,1.1,1.1,35,0.00,CLR,,0.00,WeatherDisplay:10.37,2013-05-12 15:52:00,
2013-05-12 09:57:00,63.3,37.2,30.15,ESE,114,1.1,1.1,38,0.00,CLR,,0.00,WeatherDisplay:10.37,2013-05-12 15:57:00,
2013-05-12 10:02:00,64.1,37.3,30.15,ENE,74,2.3,2.3,37,0.00,CLR,,0.00,WeatherDisplay:10.37,2013-05-12 16:02:00,
2013-05-12 10:07:00,64.3,35.3,30.15,North,5,1.1,1.1,34,0.00,CLR,,0.00,WeatherDisplay:10.37,2013-05-12 16:07:00,
2013-05-12 10:12:00,64.0,36.5,30.14,NE,40,1.0,1.0,36,0.00,CLR,,0.00,WeatherDisplay:10.37,2013-05-12 16:12:00,
2013-05-12 10:17:00,64.4,34.6,30.14,SE,132,3.5,3.5,33,0.00,CLR,,0.00,WeatherDisplay:10.37,2013-05-12 16:17:00,
2013-05-12 10:22:00,65.0,35.2,30.14,SE,132,1.1,1.1,33,0.00,CLR,,0.00,WeatherDisplay:10.37,2013-05-12 16:22:00,
2013-05-12 10:27:00,65.8,34.3,30.14,SE,130,1.1,1.1,31,0.00,CLR,,0.00,WeatherDisplay:10.37,2013-05-12 16:27:00,
2013-05-12 10:32:00,66.7,35.1,30.14,SSE,151,0.0,0.0,31,0.00,CLR,,0.00,WeatherDisplay:10.37,2013-05-12 16:32:00,
2013-05-12 10:37:00,67.6,36.7,30.13,ESE,104,2.3,2.3,32,0.00,CLR,,0.00,WeatherDisplay:10.37,2013-05-12 16:37:00,
2013-05-12 10:42:00,68.3,33.9,30.13,ESE,111,2.0,2.0,28,0.00,CLR,,0.00,WeatherDisplay:10.37,2013-05-12 16:42:00,
2013-05-12 10:47:00,68.4,35.7,30.13,SE,134,3.5,3.5,30,0.00,CLR,,0.00,WeatherDisplay:10.37,2013-05-12 16:47:00,
2013-05-12 10:52:00,69.0,34.5,30.13,ESE,115,2.3,2.3,28,0.00,CLR,,0.00,WeatherDisplay:10.37,2013-05-12 16:52:00,
2013-05-12 10:57:00,69.4,35.7,30.13,ENE,69,3.5,3.5,29,0.00,CLR,,0.00,WeatherDisplay:10.37,2013-05-12 16:57:00,
2013-05-12 11:02:00,70.2,38.1,30.12,ENE,59,3.0,3.0,31,0.00,CLR,,0.00,WeatherDisplay:10.37,2013-05-12 17:02:00,
2013-05-12 11:07:00,70.7,36.0,30.12,NW,314,3.5,3.5,28,0.00,CLR,,0.00,WeatherDisplay:10.37,2013-05-12 17:07:00,
2013-05-12 11:12:00,70.5,36.7,30.12,NW,316,1.1,1.1,29,0.00,CLR,,0.00,WeatherDisplay:10.37,2013-05-12 17:12:00,
2013-05-12 11:17:00,70.9,31.2,30.12,WNW,296,3.5,3.5,23,0.00,CLR,,0.00,WeatherDisplay:10.37,2013-05-12 17:17:00,
2013-05-12 11:22:00,71.1,34.5,30.12,NE,38,1.0,1.0,26,0.00,CLR,,0.00,WeatherDisplay:10.37,2013-05-12 17:22:00,
2013-05-12 11:27:00,71.6,32.9,30.12,NW,315,3.5,3.5,24,0.00,CLR,,0.00,WeatherDisplay:10.37,2013-05-12 17:27:00,
2013-05-12 11:32:00,72.4,35.6,30.12,NE,35,5.0,5.0,26,0.00,CLR,,0.00,WeatherDisplay:10.37,2013-05-12 17:32:00,
2013-05-12 11:37:00,72.3,31.3,30.11,NW,321,10.4,10.4,22,0.00,CLR,,0.00,WeatherDisplay:10.37,2013-05-12 17:37:00,
2013-05-12 11:42:00,71.7,33.0,30.12,NW,326,5.8,5.8,24,0.00,CLR,,0.00,WeatherDisplay:10.37,2013-05-12 17:42:00,
2013-05-12 11:47:00,71.7,31.9,30.12,ENE,73,4.6,4.6,23,0.00,CLR,,0.00,WeatherDisplay:10.37,2013-05-12 17:47:00,
2013-05-12 11:52:00,71.9,32.1,30.11,NW,311,3.5,3.5,23,0.00,CLR,,0.00,WeatherDisplay:10.37,2013-05-12 17:52:00,
2013-05-12 11:57:00,71.9,32.1,30.11,South,188,3.5,3.5,23,0.00,CLR,,0.00,WeatherDisplay:10.37,2013-05-12 17:57:00,
2013-05-12 12:02:00,72.1,33.3,30.11,NW,325,5.8,5.8,24,0.00,CLR,,0.00,WeatherDisplay:10.37,2013-05-12 18:02:00,
2013-05-12 12:07:00,72.4,34.6,30.11,West,278,5.8,5.8,25,0.00,CLR,,0.00,WeatherDisplay:10.37,2013-05-12 18:07:00,
2013-05-12 12:12:00,72.6,32.7,30.11,NW,313,5.8,5.8,23,0.00,CLR,,0.00,WeatherDisplay:10.37,2013-05-12 18:12:00,
2013-05-12 12:17:00,72.8,33.9,30.11,NW,321,2.3,2.3,24,0.00,CLR,,0.00,WeatherDisplay:10.37,2013-05-12 18:17:00,
2013-05-12 12:22:00,73.3,35.3,30.11,NW,311,11.0,11.0,25,0.00,CLR,,0.00,WeatherDisplay:10.37,2013-05-12 18:22:00,
2013-05-12 12:27:00,73.4,31.1,30.11,WSW,244,3.5,3.5,21,0.00,CLR,,0.00,WeatherDisplay:10.37,2013-05-12 18:27:00,
2013-05-12 12:32:00,73.3,31.0,30.10,NW,312,6.9,6.9,21,0.00,CLR,,0.00,WeatherDisplay:10.37,2013-05-12 18:32:00,
2013-05-12 12:37:00,72.8,33.9,30.10,NNW,330,9.0,9.0,24,0.00,CLR,,0.00,WeatherDisplay:10.37,2013-05-12 18:37:00,
2013-05-12 12:42:00,72.8,31.7,30.10,NW,326,9.2,9.2,22,0.00,CLR,,0.00,WeatherDisplay:10.37,2013-05-12 18:42:00,
2013-05-12 12:47:00,72.7,32.7,30.10,WSW,254,3.5,3.5,23,0.00,CLR,,0.00,WeatherDisplay:10.37,2013-05-12 18:47:00,
2013-05-12 12:52:00,72.8,32.8,30.09,NNW,336,3.5,3.5,23,0.00,CLR,,0.00,WeatherDisplay:10.37,2013-05-12 18:52:00,
2013-05-12 12:57:00,73.0,36.1,30.09,WNW,294,5.0,5.0,26,0.00,CLR,,0.00,WeatherDisplay:10.37,2013-05-12 18:57:00,
2013-05-12 13:02:00,73.4,33.3,30.09,NNW,334,5.8,5.8,23,0.00,CLR,,0.00,WeatherDisplay:10.37,2013-05-12 19:02:00,
2013-05-12 13:07:00,73.9,33.7,30.08,NW,311,11.5,11.5,23,0.00,CLR,,0.00,WeatherDisplay:10.37,2013-05-12 19:07:00,
2013-05-12 13:12:00,74.2,32.9,30.09,SW,224,8.1,8.1,22,0.00,CLR,,0.00,WeatherDisplay:10.37,2013-05-12 19:12:00,
2013-05-12 13:17:00,73.8,32.6,30.09,NW,315,11.5,11.5,22,0.00,CLR,,0.00,WeatherDisplay:10.37,2013-05-12 19:17:00,
2013-05-12 13:22:00,73.5,31.1,30.09,WNW,300,5.8,5.8,21,0.00,CLR,,0.00,WeatherDisplay:10.37,2013-05-12 19:22:00,
2013-05-12 13:27:00,74.0,34.9,30.09,NE,38,3.5,3.5,24,0.00,CLR,,0.00,WeatherDisplay:10.37,2013-05-12 19:27:00,
2013-05-12 13:32:00,74.1,35.0,30.09,NW,305,11.5,11.5,24,0.00,CLR,,0.00,WeatherDisplay:10.37,2013-05-12 19:32:00,
2013-05-12 13:37:00,73.9,31.5,30.08,WSW,251,11.5,11.5,21,0.00,CLR,,0.00,WeatherDisplay:10.37,2013-05-12 19:37:00,
2013-05-12 13:42:00,74.2,35.1,30.08,NW,311,7.0,7.0,24,0.00,CLR,,0.00,WeatherDisplay:10.37,2013-05-12 19:42:00,
2013-05-12 13:47:00,74.3,34.1,30.08,WNW,302,6.9,6.9,23,0.00,CLR,,0.00,WeatherDisplay:10.37,2013-05-12 19:47:00,
2013-05-12 13:52:00,74.2,36.1,30.09,WNW,288,8.1,8.1,25,0.00,CLR,,0.00,WeatherDisplay:10.37,2013-05-12 19:52:00,
2013-05-12 13:57:00,74.6,32.1,30.08,WSW,238,6.9,6.9,21,0.00,CLR,,0.00,WeatherDisplay:10.37,2013-05-12 19:57:00,
2013-05-12 14:02:00,75.1,34.8,30.08,West,266,9.0,9.0,23,0.00,CLR,,0.00,WeatherDisplay:10.37,2013-05-12 20:02:00,
2013-05-12 14:07:00,75.3,34.9,30.08,SW,233,4.0,4.0,23,0.00,CLR,,0.00,WeatherDisplay:10.37,2013-05-12 20:07:00,
2013-05-12 14:12:00,75.8,35.3,30.08,WNW,298,5.8,5.8,23,0.00,CLR,,0.00,WeatherDisplay:10.37,2013-05-12 20:12:00,
2013-05-12 14:17:00,75.2,33.7,30.08,WNW,302,6.9,6.9,22,0.00,CLR,,0.00,WeatherDisplay:10.37,2013-05-12 20:17:00,
2013-05-12 14:22:00,74.5,32.0,30.08,WSW,249,5.8,5.8,21,0.00,CLR,,0.00,WeatherDisplay:10.37,2013-05-12 20:22:00,
2013-05-12 14:27:00,74.3,34.1,30.08,NW,309,6.9,6.9,23,0.00,CLR,,0.00,WeatherDisplay:10.37,2013-05-12 20:27:00,
2013-05-12 14:32:00,74.0,31.6,30.08,WNW,303,10.4,10.4,21,0.00,CLR,,0.00,WeatherDisplay:10.37,2013-05-12 20:32:00,
2013-05-12 14:37:00,73.6,31.2,30.08,NW,322,11.5,11.5,21,0.00,CLR,,0.00,WeatherDisplay:10.37,2013-05-12 20:37:00,
2013-05-12 14:42:00,73.5,33.4,30.08,West,261,5.8,5.8,23,0.00,CLR,,0.00,WeatherDisplay:10.37,2013-05-12 20:42:00,
2013-05-12 14:47:00,73.8,32.6,30.08,NW,315,12.7,12.7,22,0.00,CLR,,0.00,WeatherDisplay:10.37,2013-05-12 20:47:00,
2013-05-12 14:52:00,73.7,32.5,30.08,WNW,296,11.5,11.5,22,0.00,CLR,,0.00,WeatherDisplay:10.37,2013-05-12 20:52:00,
2013-05-12 14:57:00,73.9,33.7,30.07,WNW,287,14.0,14.0,23,0.00,CLR,,0.00,WeatherDisplay:10.37,2013-05-12 20:57:00,
2013-05-12 15:02:00,73.7,32.5,30.07,WNW,301,13.8,13.8,22,0.00,CLR,,0.00,WeatherDisplay:10.37,2013-05-12 21:02:00,
2013-05-12 15:07:00,74.3,34.1,30.07,West,277,5.8,5.8,23,0.00,CLR,,0.00,WeatherDisplay:10.37,2013-05-12 21:07:00,
2013-05-12 15:12:00,74.9,34.6,30.07,WNW,288,10.4,10.4,23,0.00,CLR,,0.00,WeatherDisplay:10.37,2013-05-12 21:12:00,
2013-05-12 15:17:00,74.5,33.1,30.07,WSW,241,10.4,10.4,22,0.00,CLR,,0.00,WeatherDisplay:10.37,2013-05-12 21:17:00,
2013-05-12 15:22:00,73.4,32.2,30.07,NW,305,8.1,8.1,22,0.00,CLR,,0.00,WeatherDisplay:10.37,2013-05-12 21:22:00,
2013-05-12 15:27:00,72.9,31.8,30.07,NW,320,6.0,6.0,22,0.00,CLR,,0.00,WeatherDisplay:10.37,2013-05-12 21:27:00,
2013-05-12 15:32:00,72.7,31.6,30.07,West,263,8.1,8.1,22,0.00,CLR,,0.00,WeatherDisplay:10.37,2013-05-12 21:32:00,
2013-05-12 15:37:00,72.8,32.8,30.07,WSW,252,6.0,6.0,23,0.00,CLR,,0.00,WeatherDisplay:10.37,2013-05-12 21:37:00,
2013-05-12 15:42:00,73.4,33.3,30.07,WNW,303,4.0,4.0,23,0.00,CLR,,0.00,WeatherDisplay:10.37,2013-05-12 21:42:00,
2013-05-12 15:47:00,73.8,33.7,30.07,WNW,292,5.8,5.8,23,0.00,CLR,,0.00,WeatherDisplay:10.37,2013-05-12 21:47:00,
2013-05-12 15:52:00,73.8,32.6,30.06,NW,314,3.5,3.5,22,0.00,CLR,,0.00,WeatherDisplay:10.37,2013-05-12 21:52:00,
2013-05-12 15:57:00,74.2,32.9,30.06,NW,306,3.5,3.5,22,0.00,CLR,,0.00,WeatherDisplay:10.37,2013-05-12 21:57:00,
2013-05-12 16:02:00,74.6,33.2,30.06,WSW,242,8.1,8.1,22,0.00,CLR,,0.00,WeatherDisplay:10.37,2013-05-12 22:02:00,
2013-05-12 16:07:00,75.1,33.6,30.06,WNW,296,2.3,2.3,22,0.00,CLR,,0.00,WeatherDisplay:10.37,2013-05-12 22:07:00,
2013-05-12 16:12:00,75.1,32.5,30.06,WNW,292,6.9,6.9,21,0.00,CLR,,0.00,WeatherDisplay:10.37,2013-05-12 22:12:00,
2013-05-12 16:17:00,75.1,32.5,30.06,NNE,27,5.8,5.8,21,0.00,CLR,,0.00,WeatherDisplay:10.37,2013-05-12 22:17:00,
2013-05-12 16:22:00,74.9,31.1,30.06,WNW,301,1.1,1.1,20,0.00,CLR,,0.00,WeatherDisplay:10.37,2013-05-12 22:22:00,
2013-05-12 16:27:00,75.1,33.6,30.05,WNW,289,4.6,4.6,22,0.00,CLR,,0.00,WeatherDisplay:10.37,2013-05-12 22:27:00,
2013-05-12 16:32:00,74.9,33.5,30.05,NW,312,9.2,9.2,22,0.00,CLR,,0.00,WeatherDisplay:10.37,2013-05-12 22:32:00,
2013-05-12 16:37:00,74.4,34.2,30.05,West,269,8.1,8.1,23,0.00,CLR,,0.00,WeatherDisplay:10.37,2013-05-12 22:37:00,
2013-05-12 16:42:00,74.2,32.9,30.05,NW,309,6.0,6.0,22,0.00,CLR,,0.00,WeatherDisplay:10.37,2013-05-12 22:42:00,
2013-05-12 16:47:00,74.0,32.7,30.05,West,276,3.5,3.5,22,0.00,CLR,,0.00,WeatherDisplay:10.37,2013-05-12 22:47:00,
2013-05-12 16:52:00,73.8,33.7,30.04,NW,317,11.5,11.5,23,0.00,CLR,,0.00,WeatherDisplay:10.37,2013-05-12 22:52:00,
2013-05-12 16:57:00,73.8,34.7,30.05,WSW,240,3.5,3.5,24,0.00,CLR,,0.00,WeatherDisplay:10.37,2013-05-12 22:57:00,
2013-05-12 17:02:00,73.9,31.5,30.05,West,272,4.6,4.6,21,0.00,CLR,,0.00,WeatherDisplay:10.37,2013-05-12 23:02:00,
2013-05-12 17:07:00,74.0,33.8,30.05,NW,309,5.8,5.8,23,0.00,CLR,,0.00,WeatherDisplay:10.37,2013-05-12 23:07:00,
2013-05-12 17:12:00,73.8,31.4,30.04,WNW,300,4.0,4.0,21,0.00,CLR,,0.00,WeatherDisplay:10.37,2013-05-12 23:12:00,
2013-05-12 17:17:00,73.7,33.6,30.04,WSW,255,8.1,8.1,23,0.00,CLR,,0.00,WeatherDisplay:10.37,2013-05-12 23:17:00,
2013-05-12 17:22:00,73.7,31.3,30.04,NNW,332,8.1,8.1,21,0.00,CLR,,0.00,WeatherDisplay:10.37,2013-05-12 23:22:00,
2013-05-12 17:27:00,73.4,33.3,30.04,WNW,303,5.8,5.8,23,0.00,CLR,,0.00,WeatherDisplay:10.37,2013-05-12 23:27:00,
2013-05-12 17:32:00,73.1,30.8,30.03,WNW,286,4.0,4.0,21,0.00,CLR,,0.00,WeatherDisplay:10.37,2013-05-12 23:32:00,
2013-05-12 17:37:00,73.0,31.9,30.03,NW,321,4.0,4.0,22,0.00,CLR,,0.00,WeatherDisplay:10.37,2013-05-12 23:37:00,
2013-05-12 17:42:00,73.0,31.9,30.03,NW,313,9.2,9.2,22,0.00,CLR,,0.00,WeatherDisplay:10.37,2013-05-12 23:42:00,
2013-05-12 17:47:00,72.9,32.9,30.03,WNW,293,6.9,6.9,23,0.00,CLR,,0.00,WeatherDisplay:10.37,2013-05-12 23:47:00,
2013-05-12 17:52:00,72.8,32.8,30.03,WNW,299,6.9,6.9,23,0.00,CLR,,0.00,WeatherDisplay:10.37,2013-05-12 23:52:00,
2013-05-12 17:57:00,72.9,32.9,30.03,WNW,294,3.5,3.5,23,0.00,CLR,,0.00,WeatherDisplay:10.37,2013-05-12 23:57:00,
2013-05-12 18:02:00,72.8,32.8,30.03,NW,305,10.4,10.4,23,0.00,CLR,,0.00,WeatherDisplay:10.37,2013-05-13 00:02:00,
2013-05-12 18:07:00,72.7,33.8,30.03,WNW,296,10.4,10.4,24,0.00,CLR,,0.00,WeatherDisplay:10.37,2013-05-13 00:07:00,
2013-05-12 18:12:00,72.5,32.6,30.02,WSW,250,2.3,2.3,23,0.00,CLR,,0.00,WeatherDisplay:10.37,2013-05-13 00:12:00,
2013-05-12 18:17:00,72.4,32.5,30.02,NW,305,3.5,3.5,23,0.00,CLR,,0.00,WeatherDisplay:10.37,2013-05-13 00:17:00,
2013-05-12 18:22:00,72.4,33.5,30.02,WNW,299,3.5,3.5,24,0.00,CLR,,0.00,WeatherDisplay:10.37,2013-05-13 00:22:00,
2013-05-12 18:27:00,72.3,32.4,30.02,NNW,329,4.6,4.6,23,0.00,CLR,,0.00,WeatherDisplay:10.37,2013-05-13 00:27:00,
2013-05-12 18:32:00,72.3,33.5,30.02,NW,306,4.6,4.6,24,0.00,CLR,,0.00,WeatherDisplay:10.37,2013-05-13 00:32:00,
2013-05-12 18:37:00,72.1,32.2,30.02,NW,304,5.8,5.8,23,0.00,CLR,,0.00,WeatherDisplay:10.37,2013-05-13 00:37:00,
2013-05-12 18:42:00,71.9,32.1,30.02,NW,308,2.3,2.3,23,0.00,CLR,,0.00,WeatherDisplay:10.37,2013-05-13 00:42:00,
2013-05-12 18:47:00,71.9,33.1,30.02,NW,317,4.6,4.6,24,0.00,CLR,,0.00,WeatherDisplay:10.37,2013-05-13 00:47:00,
2013-05-12 18:52:00,71.8,33.0,30.02,WNW,302,4.6,4.6,24,0.00,CLR,,0.00,WeatherDisplay:10.37,2013-05-13 00:52:00,
2013-05-12 18:57:00,71.9,32.1,30.02,West,271,3.5,3.5,23,0.00,CLR,,0.00,WeatherDisplay:10.37,2013-05-13 00:57:00,
2013-05-12 19:02:00,72.1,31.1,30.01,West,278,3.5,3.5,22,0.00,CLR,,0.00,WeatherDisplay:10.37,2013-05-13 01:02:00,
2013-05-12 19:07:00,71.9,32.1,30.01,WNW,300,3.5,3.5,23,0.00,CLR,,0.00,WeatherDisplay:10.37,2013-05-13 01:07:00,
2013-05-12 19:12:00,71.7,31.9,30.01,WNW,300,1.1,1.1,23,0.00,CLR,,0.00,WeatherDisplay:10.37,2013-05-13 01:12:00,
2013-05-12 19:17:00,71.2,32.5,30.01,NW,312,3.5,3.5,24,0.00,CLR,,0.00,WeatherDisplay:10.37,2013-05-13 01:17:00,
2013-05-12 19:22:00,70.9,33.3,30.01,SW,231,2.0,2.0,25,0.00,CLR,,0.00,WeatherDisplay:10.37,2013-05-13 01:22:00,
2013-05-12 19:27:00,70.5,31.9,30.01,West,278,1.1,0.0,24,0.00,CLR,,0.00,WeatherDisplay:10.37,2013-05-13 01:27:00,
2013-05-12 19:32:00,70.3,32.8,30.01,West,275,1.1,1.1,25,0.00,CLR,,0.00,WeatherDisplay:10.37,2013-05-13 01:32:00,
2013-05-12 19:37:00,70.0,31.5,30.01,West,272,1.1,0.0,24,0.00,CLR,,0.00,WeatherDisplay:10.37,2013-05-13 01:37:00,
2013-05-12 19:42:00,69.7,32.3,30.01,West,272,0.0,0.0,25,0.00,CLR,,0.00,WeatherDisplay:10.37,2013-05-13 01:42:00,
2013-05-12 19:47:00,69.5,32.1,30.01,West,271,1.1,0.0,25,0.00,CLR,,0.00,WeatherDisplay:10.37,2013-05-13 01:47:00,
2013-05-12 19:52:00,69.2,32.8,30.01,West,272,1.1,0.0,26,0.00,CLR,,0.00,WeatherDisplay:10.37,2013-05-13 01:52:00,
2013-05-12 19:57:00,68.8,32.5,30.01,West,272,0.0,0.0,26,0.00,CLR,,0.00,WeatherDisplay:10.37,2013-05-13 01:57:00,
2013-05-12 20:02:00,68.5,33.2,30.01,West,271,0.0,0.0,27,0.00,CLR,,0.00,WeatherDisplay:10.37,2013-05-13 02:02:00,
2013-05-12 20:07:00,68.1,33.7,30.01,West,271,0.0,0.0,28,0.00,CLR,,0.00,WeatherDisplay:10.37,2013-05-13 02:07:00,
2013-05-12 20:12:00,67.6,33.3,30.01,West,271,0.0,0.0,28,0.00,CLR,,0.00,WeatherDisplay:10.37,2013-05-13 02:12:00,
2013-05-12 20:17:00,67.2,33.8,30.01,West,271,0.0,0.0,29,0.00,CLR,,0.00,WeatherDisplay:10.37,2013-05-13 02:17:00,
2013-05-12 20:22:00,66.6,35.0,30.01,West,271,0.0,0.0,31,0.00,CLR,,0.00,WeatherDisplay:10.37,2013-05-13 02:22:00,
2013-05-12 20:27:00,65.9,35.2,30.01,West,271,0.0,0.0,32,0.00,CLR,,0.00,WeatherDisplay:10.37,2013-05-13 02:27:00,
2013-05-12 20:32:00,65.1,36.0,30.01,West,272,0.0,0.0,34,0.00,CLR,,0.00,WeatherDisplay:10.37,2013-05-13 02:32:00,
2013-05-12 20:37:00,64.2,36.0,30.01,West,272,0.0,0.0,35,0.00,CLR,,0.00,WeatherDisplay:10.37,2013-05-13 02:37:00,
2013-05-12 20:42:00,63.6,34.7,30.01,South,187,3.5,3.5,34,0.00,CLR,,0.00,WeatherDisplay:10.37,2013-05-13 02:42:00,
2013-05-12 20:47:00,63.0,34.9,30.01,South,187,3.0,3.0,35,0.00,CLR,,0.00,WeatherDisplay:10.37,2013-05-13 02:47:00,
2013-05-12 20:52:00,62.6,34.5,30.01,South,187,0.0,0.0,35,0.00,CLR,,0.00,WeatherDisplay:10.37,2013-05-13 02:52:00,
2013-05-12 20:57:00,62.0,34.0,30.01,SSE,165,2.3,2.3,35,0.00,CLR,,0.00,WeatherDisplay:10.37,2013-05-13 02:57:00,
2013-05-12 21:02:00,61.6,33.7,30.02,South,182,4.6,4.6,35,0.00,CLR,,0.00,WeatherDisplay:10.37,2013-05-13 03:02:00,
2013-05-12 21:07:00,61.3,34.8,30.01,SSW,193,3.5,3.5,37,0.00,CLR,,0.00,WeatherDisplay:10.37,2013-05-13 03:07:00,
2013-05-12 21:12:00,61.1,34.6,30.02,SSW,193,3.5,3.5,37,0.00,CLR,,0.00,WeatherDisplay:10.37,2013-05-13 03:12:00,
2013-05-12 21:17:00,60.5,33.4,30.02,SSW,193,0.0,0.0,36,0.00,CLR,,0.00,WeatherDisplay:10.37,2013-05-13 03:17:00,
2013-05-12 21:22:00,59.9,34.2,30.02,SSW,193,0.0,0.0,38,0.00,CLR,,0.00,WeatherDisplay:10.37,2013-05-13 03:22:00,
2013-05-12 21:27:00,59.4,33.1,30.02,SSW,193,0.0,0.0,37,0.00,CLR,,0.00,WeatherDisplay:10.37,2013-05-13 03:27:00,
2013-05-12 21:32:00,58.9,34.0,30.02,SSW,193,0.0,0.0,39,0.00,CLR,,0.00,WeatherDisplay:10.37,2013-05-13 03:32:00,
2013-05-12 21:37:00,58.5,34.2,30.02,SSW,193,0.0,0.0,40,0.00,CLR,,0.00,WeatherDisplay:10.37,2013-05-13 03:37:00,
2013-05-12 21:42:00,58.2,34.0,30.02,SSW,193,0.0,0.0,40,0.00,CLR,,0.00,WeatherDisplay:10.37,2013-05-13 03:42:00,
2013-05-12 21:47:00,57.9,34.9,30.02,SSW,193,0.0,0.0,42,0.00,CLR,,0.00,WeatherDisplay:10.37,2013-05-13 03:47:00,
2013-05-12 21:52:00,57.6,35.2,30.02,SSW,193,0.0,0.0,43,0.00,CLR,,0.00,WeatherDisplay:10.37,2013-05-13 03:52:00,
2013-05-12 21:57:00,57.1,34.2,30.03,SSW,193,0.0,0.0,42,0.00,CLR,,0.00,WeatherDisplay:10.37,2013-05-13 03:57:00,
2013-05-12 22:01:00,56.8,33.9,30.02,SSW,193,0.0,0.0,42,0.00,CLR,,0.00,WeatherDisplay:10.37,2013-05-13 04:01:00,
2013-05-12 22:06:00,56.3,34.6,30.03,SSW,193,0.0,0.0,44,0.00,CLR,,0.00,WeatherDisplay:10.37,2013-05-13 04:06:00,
2013-05-12 22:11:00,55.9,35.4,30.03,SSW,193,0.0,0.0,46,0.00,CLR,,0.00,WeatherDisplay:10.37,2013-05-13 04:11:00,
2013-05-12 22:16:00,55.6,37.2,30.03,SSW,193,0.0,0.0,50,0.00,CLR,,0.00,WeatherDisplay:10.37,2013-05-13 04:16:00,
2013-05-12 22:21:00,55.2,35.8,30.03,SSW,193,0.0,0.0,48,0.00,CLR,,0.00,WeatherDisplay:10.37,2013-05-13 04:21:00,
2013-05-12 22:26:00,54.9,35.0,30.03,SSW,193,0.0,0.0,47,0.00,CLR,,0.00,WeatherDisplay:10.37,2013-05-13 04:26:00,
2013-05-12 22:31:00,54.6,34.8,30.03,SSW,193,0.0,0.0,47,0.00,CLR,,0.00,WeatherDisplay:10.37,2013-05-13 04:31:00,
2013-05-12 22:36:00,54.3,35.0,30.03,SSW,193,0.0,0.0,48,0.00,CLR,,0.00,WeatherDisplay:10.37,2013-05-13 04:36:00,
2013-05-12 22:41:00,54.0,35.8,30.04,SSW,193,0.0,0.0,50,0.00,CLR,,0.00,WeatherDisplay:10.37,2013-05-13 04:41:00,
2013-05-12 22:46:00,53.7,36.0,30.03,SSW,193,0.0,0.0,51,0.00,CLR,,0.00,WeatherDisplay:10.37,2013-05-13 04:46:00,
2013-05-12 22:51:00,53.3,35.6,30.03,SSW,193,0.0,0.0,51,0.00,CLR,,0.00,WeatherDisplay:10.37,2013-05-13 04:51:00,
2013-05-12 22:56:00,53.1,34.9,30.04,SSW,193,0.0,0.0,50,0.00,CLR,,0.00,WeatherDisplay:10.37,2013-05-13 04:56:00,
2013-05-12 23:01:00,52.8,34.7,30.04,SSW,193,0.0,0.0,50,0.00,CLR,,0.00,WeatherDisplay:10.37,2013-05-13 05:01:00,
2013-05-12 23:06:00,52.6,34.5,30.03,SSW,193,0.0,0.0,50,0.00,CLR,,0.00,WeatherDisplay:10.37,2013-05-13 05:06:00,
2013-05-12 23:11:00,52.3,34.7,30.03,SSW,193,0.0,0.0,51,0.00,CLR,,0.00,WeatherDisplay:10.37,2013-05-13 05:11:00,
2013-05-12 23:16:00,52.1,35.0,30.04,SSW,193,0.0,0.0,52,0.00,CLR,,0.00,WeatherDisplay:10.37,2013-05-13 05:16:00,
2013-05-12 23:21:00,51.8,34.7,30.04,SSW,193,0.0,0.0,52,0.00,CLR,,0.00,WeatherDisplay:10.37,2013-05-13 05:21:00,
2013-05-12 23:26:00,51.5,34.9,30.04,SSW,193,0.0,0.0,53,0.00,CLR,,0.00,WeatherDisplay:10.37,2013-05-13 05:26:00,
2013-05-12 23:31:00,51.2,34.6,30.04,SSW,193,0.0,0.0,53,0.00,CLR,,0.00,WeatherDisplay:10.37,2013-05-13 05:31:00,
2013-05-12 23:36:00,50.9,35.3,30.04,SSW,193,1.1,1.1,55,0.00,CLR,,0.00,WeatherDisplay:10.37,2013-05-13 05:36:00,
2013-05-12 23:41:00,50.8,35.7,30.04,SSW,193,0.0,0.0,56,0.00,CLR,,0.00,WeatherDisplay:10.37,2013-05-13 05:41:00,
2013-05-12 23:46:00,50.6,35.9,30.04,SSW,193,0.0,0.0,57,0.00,CLR,,0.00,WeatherDisplay:10.37,2013-05-13 05:46:00,
2013-05-12 23:51:00,50.4,36.2,30.04,East,85,0.0,0.0,58,0.00,CLR,,0.00,WeatherDisplay:10.37,2013-05-13 05:51:00,
2013-05-12 23:56:00,50.2,35.5,30.04,East,85,0.0,0.0,57,0.00,CLR,,0.00,WeatherDisplay:10.37,2013-05-13 05:56:00,